Вернуться в каталог

CZ-6A DEB

АктивенSSO
NORAD 54970·DEBRIS·🇨🇳 China

Запущен Nov 11, 2022 с Taiyuan Satellite Launch Center

Loading…

Ближайшие Пролёты (ближайшие 24 часа)

TLE

СвежийSource: Space-Track

Эпоха: Sep 14, 2026, 04:37 UTC

1 54970U 22151TK  26257.19262492  .00000779  00000-0  48049-3 0  9994
2 54970  98.8759 248.0108 0067658 118.6597 242.1397 14.07223835196699

Отслеживайте CZ-6A DEB в реальном времени с AllMySat

Download on the App Store